Date String (YYYY-MM-DD hh:mm:ss) UTC,Instrument flags,absolute air pressure of the measurement (hPa),sample flow rate (lpm),inlet stack bypass flow (lpm),air temperature of the measurement (°C),ambient temperature measured by the external sensor (°C),aerosol sample conditioner tube jacket temperature (°C),OPC LED temperature (°C),internal box temperature (°C),relative humidity of the measurement (%),span deviation,mass concentration of particles derived from Lorenz-Mie calculation of OPC scattering (μg/m³),mass concentration of particles derived from Lorenz-Mie calculation of OPC scattering (μg/m³),mass concentration of particles derived from Lorenz-Mie calculation of OPC scattering (μg/m³)
DateTimeUTC,F1_M11,P_M11,Q1_M11,Q2_M11,T1_M11,T2_M11,T3_M11,T4_M11,T5_M11,U1_M11,ZSPAN_M11,X2_M11,X0_M11,X1_M11
2024-05-30 00:00:00,SystemResetWarning,0826.8,5.00,000.00,029.8,029.1,000.0,038.0,031.6,015.7,0000.0,0002.96,0007.75,0001.87
2024-05-30 00:01:00,SystemResetWarning,0826.8,5.01,000.00,029.9,029.3,000.0,038.0,031.7,015.4,0000.0,0003.00,0007.51,0001.87
2024-05-30 00:02:00,SystemResetWarning,0826.8,5.00,000.00,029.9,029.4,000.0,038.0,031.7,015.4,0000.0,0003.01,0008.25,0001.86
2024-05-30 00:03:00,SystemResetWarning,0826.8,5.00,000.00,030.0,029.5,000.0,038.1,031.8,015.2,0000.0,0003.08,0008.34,0001.85
2024-05-30 00:04:00,SystemResetWarning,0826.8,5.00,000.00,030.0,029.6,000.0,038.1,031.9,015.1,0000.0,0003.07,0008.33,0001.85
2024-05-30 00:05:00,SystemResetWarning,0826.8,4.99,000.00,030.1,029.7,000.0,038.1,031.9,015.5,0000.0,0003.06,0008.46,0001.84
2024-05-30 00:06:00,SystemResetWarning,0826.7,4.98,000.00,030.1,029.0,000.0,038.2,031.5,015.1,0000.0,0002.99,0008.71,0001.84
2024-05-30 00:07:00,SystemResetWarning,0826.6,5.01,000.00,029.8,026.9,000.0,038.2,030.6,014.8,0000.0,0002.96,0008.61,0001.84
2024-05-30 00:08:00,SystemResetWarning,0826.6,5.01,000.00,029.5,026.8,000.0,038.2,030.5,015.0,0000.0,0002.95,0008.72,0001.83
2024-05-30 00:09:00,SystemResetWarning,0826.6,5.00,000.00,029.5,027.2,000.0,038.1,030.6,015.2,0000.0,0002.98,0008.64,0001.82
2024-05-30 00:10:00,SystemResetWarning,0826.6,5.00,000.00,029.5,027.6,000.0,038.1,030.9,015.3,0000.0,0002.95,0008.34,0001.81
2024-05-30 00:11:00,SystemResetWarning,0826.7,5.00,000.00,029.5,027.9,000.0,038.0,031.1,016.0,0000.0,0002.90,0008.34,0001.79
2024-05-30 00:12:00,SystemResetWarning,0826.7,5.00,000.00,029.6,028.2,000.0,038.0,031.2,016.1,0000.0,0002.85,0008.71,0001.79
2024-05-30 00:13:00,SystemResetWarning,0826.8,4.99,000.00,029.6,028.5,000.0,038.0,031.3,016.1,0000.0,0002.79,0008.01,0001.79
2024-05-30 00:14:00,SystemResetWarning,0826.8,5.00,000.00,029.7,028.7,000.0,038.0,031.4,015.3,0000.0,0002.75,0008.50,0001.80
2024-05-30 00:15:00,SystemResetWarning,0826.8,5.01,000.00,029.8,028.9,000.0,038.0,031.5,015.4,0000.0,0002.74,0008.56,0001.80
2024-05-30 00:16:00,SystemResetWarning,0826.8,5.01,000.00,029.8,029.1,000.0,038.0,031.6,015.3,0000.0,0002.75,0009.04,0001.78
2024-05-30 00:17:00,SystemResetWarning,0826.8,5.00,000.00,029.9,029.2,000.0,038.0,031.7,014.9,0000.0,0002.75,0008.81,0001.78
2024-05-30 00:18:00,SystemResetWarning,0826.8,5.00,000.00,029.9,029.4,000.0,038.1,031.8,015.4,0000.0,0002.69,0008.63,0001.76
2024-05-30 00:19:00,SystemResetWarning,0826.8,5.00,000.00,030.0,029.5,000.0,038.1,031.8,015.5,0000.0,0002.69,0008.45,0001.75
2024-05-30 00:20:00,SystemResetWarning,0826.8,5.00,000.00,030.1,029.6,000.0,038.1,031.9,015.6,0000.0,0002.71,0008.46,0001.75
2024-05-30 00:21:00,SystemResetWarning,0826.8,5.00,000.00,030.1,029.7,000.0,038.2,031.9,015.2,0000.0,0002.71,0008.72,0001.75
2024-05-30 00:22:00,SystemResetWarning,0826.7,4.99,000.00,030.1,029.0,000.0,038.2,031.5,014.8,0000.0,0002.66,0009.08,0001.75
2024-05-30 00:23:00,SystemResetWarning,0826.6,4.99,000.00,029.7,026.4,000.0,038.3,030.3,015.0,0000.0,0002.63,0009.12,0001.74
2024-05-30 00:24:00,SystemResetWarning,0826.4,5.02,000.00,029.3,025.5,000.0,038.2,029.8,015.4,0000.0,0002.68,0009.16,0001.74
2024-05-30 00:25:00,SystemResetWarning,0826.4,4.99,000.00,029.2,026.0,000.0,038.1,030.0,015.7,0000.0,0002.68,0008.82,0001.72
2024-05-30 00:26:00,SystemResetWarning,0826.4,5.01,000.00,029.1,026.5,000.0,038.0,030.2,016.1,0000.0,0002.67,0008.41,0001.73
2024-05-30 00:27:00,SystemResetWarning,0826.4,4.99,000.00,029.1,027.0,000.0,037.9,030.5,016.1,0000.0,0002.65,0007.95,0001.72
2024-05-30 00:28:00,SystemResetWarning,0826.4,5.00,000.00,029.2,027.4,000.0,037.8,030.7,015.4,0000.0,0002.61,0007.25,0001.72
2024-05-30 00:29:00,SystemResetWarning,0826.4,5.01,000.00,029.2,027.8,000.0,037.8,030.9,015.0,0000.0,0002.62,0007.34,0001.71
2024-05-30 00:30:00,SystemResetWarning,0826.4,4.99,000.00,029.3,028.1,000.0,037.8,031.0,015.4,0000.0,0002.64,0007.41,0001.72
2024-05-30 00:31:00,SystemResetWarning,0826.4,5.00,000.00,029.4,028.4,000.0,037.8,031.1,015.7,0000.0,0002.64,0007.65,0001.72
2024-05-30 00:32:00,SystemResetWarning,0826.4,5.00,000.00,029.5,028.6,000.0,037.8,031.2,015.8,0000.0,0002.66,0007.59,0001.73
2024-05-30 00:33:00,SystemResetWarning,0826.4,5.00,000.00,029.5,028.8,000.0,037.8,031.3,016.0,0000.0,0002.72,0007.02,0001.73
2024-05-30 00:34:00,SystemResetWarning,0826.4,5.00,000.00,029.6,029.0,000.0,037.8,031.4,014.9,0000.0,0002.76,0006.49,0001.73
2024-05-30 00:35:00,SystemResetWarning,0826.4,5.00,000.00,029.7,029.1,000.0,037.8,031.5,014.8,0000.0,0002.77,0005.97,0001.75
2024-05-30 00:36:00,SystemResetWarning,0826.4,5.00,000.00,029.7,029.3,000.0,037.9,031.6,015.3,0000.0,0002.78,0005.99,0001.75
2024-05-30 00:37:00,SystemResetWarning,0826.4,5.00,000.00,029.8,029.4,000.0,037.9,031.7,015.4,0000.0,0002.80,0006.08,0001.76
2024-05-30 00:38:00,SystemResetWarning,0826.4,5.00,000.00,029.9,029.5,000.0,037.9,031.7,015.0,0000.0,0002.80,0005.79,0001.77
2024-05-30 00:39:00,SystemResetWarning,0826.4,5.00,000.00,030.0,029.6,000.0,038.0,031.8,015.0,0000.0,0002.87,0006.06,0001.78
2024-05-30 00:40:00,SystemResetWarning,0826.4,5.00,000.00,030.0,029.7,000.0,038.0,031.9,014.9,0000.0,0002.88,0006.05,0001.79
2024-05-30 00:41:00,SystemResetWarning,0826.4,4.99,000.00,030.1,029.3,000.0,038.1,031.7,014.9,0000.0,0002.91,0006.13,0001.80
2024-05-30 00:42:00,SystemResetWarning,0826.3,4.99,000.00,029.8,027.2,000.0,038.1,030.6,015.1,0000.0,0002.92,0006.86,0001.79
2024-05-30 00:43:00,SystemResetWarning,0826.3,5.02,000.00,029.5,026.7,000.0,038.2,030.3,014.9,0000.0,0002.86,0006.52,0001.79
2024-05-30 00:44:00,SystemResetWarning,0826.4,4.99,000.00,029.4,027.1,000.0,038.1,030.5,015.1,0000.0,0002.89,0006.89,0001.79
2024-05-30 00:45:00,SystemResetWarning,0826.4,5.00,000.00,029.4,027.4,000.0,038.0,030.7,015.3,0000.0,0002.86,0007.20,0001.79
2024-05-30 00:46:00,SystemResetWarning,0826.4,5.00,000.00,029.4,027.8,000.0,037.9,030.9,014.9,0000.0,0002.87,0007.98,0001.79
2024-05-30 00:47:00,SystemResetWarning,0826.4,4.99,000.00,029.5,028.1,000.0,037.9,031.1,014.8,0000.0,0002.92,0008.08,0001.80
2024-05-30 00:48:00,SystemResetWarning,0826.4,5.00,000.00,029.6,028.4,000.0,037.9,031.2,014.8,0000.0,0002.89,0008.32,0001.80
2024-05-30 00:49:00,SystemResetWarning,0826.4,5.00,000.00,029.6,028.7,000.0,037.9,031.3,014.8,0000.0,0002.88,0008.63,0001.80
2024-05-30 00:50:00,SystemResetWarning,0826.4,5.00,000.00,029.7,028.9,000.0,037.9,031.4,014.7,0000.0,0002.87,0008.56,0001.80
2024-05-30 00:51:00,SystemResetWarning,0826.4,5.01,000.00,029.8,029.1,000.0,037.9,031.5,014.6,0000.0,0002.86,0008.58,0001.81
2024-05-30 00:52:00,SystemResetWarning,0826.4,5.00,000.00,029.8,029.2,000.0,037.9,031.6,014.3,0000.0,0002.82,0008.65,0001.80
2024-05-30 00:53:00,SystemResetWarning,0826.4,4.99,000.00,029.9,029.3,000.0,038.0,031.7,014.3,0000.0,0002.82,0008.32,0001.82
2024-05-30 00:54:00,SystemResetWarning,0826.4,4.99,000.00,030.0,029.5,000.0,038.0,031.8,014.5,0000.0,0002.79,0008.11,0001.82
2024-05-30 00:55:00,SystemResetWarning,0826.4,5.01,000.00,030.0,029.6,000.0,038.1,031.8,014.5,0000.0,0002.74,0008.03,0001.81
2024-05-30 00:56:00,SystemResetWarning,0826.4,5.00,000.00,030.0,029.1,000.0,038.1,031.6,014.4,0000.0,0002.71,0007.72,0001.81
2024-05-30 00:57:00,SystemResetWarning,0826.4,4.99,000.00,029.7,026.6,000.0,038.2,030.4,015.1,0000.0,0002.72,0006.92,0001.80
2024-05-30 00:58:00,SystemResetWarning,0826.3,5.02,000.00,029.2,025.2,000.0,038.1,029.6,015.9,0000.0,0002.69,0007.28,0001.79
2024-05-30 00:59:00,SystemResetWarning,0826.4,5.00,000.00,029.1,025.7,000.0,038.0,029.8,015.7,0000.0,0002.73,0007.79,0001.79
